Grand Forks, ND

3:00 AM CDT on June 29, 2017 (GMT -0500)
Grand Forks International

Weather History for KGFK - March, 2014

Change the Weather History Date:

Thursday, March 20, 2014

  Actual Average Record
Temperature  
Mean Temperature 31 °F 27 °F  
Max Temperature 39 °F 36 °F 59 °F (1946)
Min Temperature 22 °F 18 °F -14 °F (1955)
Degree Days  
Heating Degree Days 34 38  
Month to date heating degree days 968 858  
Since 1 July heating degree days 8863 8008  
Cooling Degree Days 0 0  
Month to date cooling degree days 0 0  
Year to date cooling degree days 0 0  
Moisture  
Dew Point 28 °F    
Average Humidity 80    
Maximum Humidity 96    
Minimum Humidity 64    
Precipitation  
Precipitation 0.18 in 0.03 in 0.34 in (1976)
Month to date precipitation 0.32 0.61  
Year to date precipitation 1.39 1.68  
Snow  
Snow T in 0.20 in 3.40 in (1976)
Month to date snowfall 1.1 5.4  
Since 1 July snowfall 46.8 42.6  
Snow Depth 1.00 in    
Sea Level Pressure  
Sea Level Pressure 29.84 in    
Wind  
Wind Speed 7 mph (SE)    
Max Wind Speed 15 mph    
Max Gust Speed 18 mph    
Visibility 10 miles    
Events Rain , Snow    
T = Trace of Precipitation, MM = Missing Value Source: NWS Daily Summary

Daily Weather History Graph

Daily Weather History Graph

Search for Another Location

Airport or City:

Trip Planner

Search our weather history database for the weather conditions in past years. The results will help you decide how hot, cold, wet, or windy it might be!

Date:

Astronomy

Mar. 20, 2014 Rise Set
Actual Time 7:31 AM CDT 7:41 PM CDT
Civil Twilight 7:00 AM CDT 8:12 PM CDT
Nautical Twilight 6:24 AM CDT 8:49 PM CDT
Astronomical Twilight 5:46 AM CDT 9:26 PM CDT
Moon No Moon Rise 9:21 AM CDT (3/20)
Length of Visible Light 13h 11m
Length of Day
12h 10m
Waning Gibbous, 84% of the Moon is Illuminated
Mar 20
Waning Gibbous
Mar 23
Last Quarter
Mar 30
New
Apr 7
First Quarter
Apr 15
Full

Hourly Weather History & Observations

Time (CDT) Temp. Windchill Dew Point Humidity Pressure Visibility Wind Dir Wind Speed Gust Speed Precip Events Conditions
1:53 AM 27.0 °F 23.0 °F 25.0 °F 92% 29.92 in 10.0 mi West 3.5 mph - N/A   Clear
2:53 AM 26.1 °F - 23.0 °F 88% 29.93 in 10.0 mi Calm Calm - N/A   Clear
3:53 AM 24.1 °F - 21.0 °F 88% 29.92 in 10.0 mi Calm Calm - N/A   Clear
4:53 AM 23.0 °F - 21.0 °F 92% 29.92 in 10.0 mi Calm Calm - N/A   Clear
5:53 AM 23.0 °F 18.4 °F 21.0 °F 92% 29.93 in 8.0 mi WSW 3.5 mph - N/A   Clear
6:53 AM 23.0 °F 17.0 °F 21.0 °F 92% 29.94 in 10.0 mi SW 4.6 mph - N/A   Clear
7:53 AM 21.9 °F 17.2 °F 19.9 °F 92% 29.93 in 9.0 mi SSW 3.5 mph - N/A   Partly Cloudy
8:53 AM 26.1 °F - 24.1 °F 92% 29.92 in 9.0 mi Calm Calm - N/A   Scattered Clouds
9:53 AM 30.0 °F 25.2 °F 28.0 °F 92% 29.92 in 10.0 mi SE 4.6 mph - N/A   Mostly Cloudy
10:53 AM 32.0 °F 25.6 °F 28.9 °F 88% 29.91 in 10.0 mi SE 6.9 mph - N/A   Overcast
11:53 AM 32.0 °F 23.6 °F 28.9 °F 88% 29.90 in 10.0 mi SE 10.4 mph - N/A   Overcast
12:36 PM 32.0 °F 23.0 °F 28.4 °F 87% 29.85 in 10.0 mi SSE 11.5 mph - N/A   Overcast
12:53 PM 33.1 °F 23.9 °F 28.9 °F 85% 29.89 in 10.0 mi SSE 12.7 mph - N/A   Overcast
1:53 PM 33.1 °F 24.4 °F 30.0 °F 89% 29.87 in 10.0 mi SE 11.5 mph - N/A   Overcast
2:41 PM 33.8 °F 25.8 °F 30.2 °F 87% 29.82 in 9.0 mi SSE 10.4 mph - N/A   Overcast
2:53 PM 35.1 °F 27.9 °F 30.9 °F 85% 29.86 in 10.0 mi SSE 9.2 mph - N/A   Overcast
3:04 PM 35.6 °F 28.6 °F 30.2 °F 81% 29.81 in 10.0 mi SE 9.2 mph - N/A   Overcast
3:53 PM 36.0 °F 28.0 °F 32.0 °F 86% 29.83 in 10.0 mi SE 11.5 mph - N/A   Mostly Cloudy
4:53 PM 37.0 °F 29.3 °F 30.0 °F 76% 29.82 in 10.0 mi SE 11.5 mph - N/A   Overcast
5:53 PM 37.9 °F 29.2 °F 28.9 °F 70% 29.80 in 10.0 mi ESE 15.0 mph - N/A   Mostly Cloudy
6:53 PM 37.9 °F 30.9 °F 27.0 °F 65% 29.79 in 10.0 mi ESE 10.4 mph - N/A   Mostly Cloudy
7:53 PM 36.0 °F 28.5 °F 28.9 °F 76% 29.79 in 10.0 mi East 10.4 mph - N/A   Mostly Cloudy
8:53 PM 36.0 °F 29.6 °F 28.0 °F 73% 29.78 in 10.0 mi East 8.1 mph - N/A   Overcast
9:23 PM 35.6 °F 28.6 °F 28.4 °F 75% 29.75 in 9.0 mi East 9.2 mph - 0.00 in Snow Light Snow
9:53 PM 34.0 °F 25.5 °F 30.0 °F 85% 29.77 in 3.0 mi East 11.5 mph - 0.00 in Snow Light Snow
10:15 PM 33.8 °F 24.8 °F 30.2 °F 87% 29.72 in 9.0 mi East 12.7 mph - 0.02 in Rain Light Rain
10:53 PM 34.0 °F 28.0 °F 30.9 °F 89% 29.74 in 10.0 mi ENE 6.9 mph - 0.03 in Rain Light Rain
11:05 PM 33.8 °F 27.0 °F 30.2 °F 87% 29.71 in 10.0 mi East 8.1 mph - 0.00 in Rain Light Rain
11:39 PM 33.8 °F 27.7 °F 30.2 °F 87% 29.70 in 9.0 mi East 6.9 mph - 0.05 in Rain Light Rain
11:53 PM 34.0 °F 26.6 °F 32.0 °F 92% 29.73 in 10.0 mi East 9.2 mph - 0.06 in Rain Light Rain